Location: Lawrence Hall of Science
(37.8785°N, 122.2415°W)
Time: 22:36:25
(UTC-07:00)

Cosmos 2151 - Visible Passes

Search period start: 22 July 2014 00:00
Search period end: 01 August 2014 00:00
Orbit: 588 x 607 km, 82.5° (Epoch: 21 July)

Date Brightness Start Highest point End Pass type
(mag) Time Alt. Az. Time Alt. Az. Time Alt. Az.
22 Jul 5.8 03:09:36 10° NE 03:11:39 13° ENE 03:13:41 10° E visible
22 Jul 3.3 04:45:13 10° NNW 04:49:19 45° W 04:52:38 14° SSW visible
23 Jul 5.3 03:19:05 10° NNE 03:22:20 21° ENE 03:25:32 10° SE visible
23 Jul 4.0 04:56:04 10° NNW 04:59:42 27° W 05:02:15 16° SW visible
24 Jul 4.5 03:29:04 10° NNE 03:32:57 32° ENE 03:35:17 19° SE visible
24 Jul 4.6 05:07:15 10° NW 05:10:03 17° W 05:11:56 13° WSW visible
25 Jul 3.6 03:39:18 10° N 03:43:30 54° E 03:45:02 34° SE visible
25 Jul 5.1 05:19:37 10° WNW 05:20:20 10° W 05:21:04 10° W visible
26 Jul 2.9 03:49:43 10° N 03:54:01 90° ENE 03:54:51 58° S visible
27 Jul 5.8 02:25:31 10° NE 02:26:43 11° ENE 02:27:54 10° E visible
27 Jul 3.0 04:00:18 10° NNW 04:04:28 53° W 04:04:43 53° WSW visible
28 Jul 5.3 02:34:30 10° NNE 02:37:24 18° ENE 02:37:57 17° E visible
28 Jul 3.9 04:11:04 10° NNW 04:14:37 32° W 04:14:37 32° W visible
29 Jul 4.7 02:44:21 10° NNE 02:47:54 27° ENE 02:47:54 27° ENE visible
29 Jul 4.6 04:22:06 10° NW 04:24:34 19° WNW 04:24:34 19° WNW visible
30 Jul 4.2 02:54:31 10° N 02:57:53 40° NE 02:57:53 40° NE visible
30 Jul 5.2 04:33:45 10° WNW 04:34:33 12° WNW 04:34:33 12° WNW visible
31 Jul 3.9 03:04:52 10° N 03:07:54 45° N 03:07:54 45° N visible
